Lapse_Rate
5.8 8.4 10.2 9.1 6.6 6.5 6.5 6.5 6.5 6.5 6.5 7.4 7.8 7.1 6.7 7.4 6.6 6.5 9.9 10.1 10.0 10.1 9.1 7.7 6.2 6.3 6.3 5.6 5.8 6.4 6.4 6.6 6.4 6.4 6.3 6.7 6.4 6.4 6.5 6.3 6.6 6.8 6.8 6.6 6.6 6.6 6.7 6.7 6.6
9.9 9.9 9.4 7.8 6.5 6.5 6.5 6.5 6.5 6.5 7.0 7.8 7.7 7.6 7.0 6.5 8.5 8.9 9.3 9.9 10.2 10.1 9.7 9.2 5.5 6.0 6.4 6.1 6.3 6.8 7.0 6.9 6.7 6.7 6.5 6.8 6.7 6.9 6.7 6.7 6.8 6.8 6.7 6.8 6.7 6.7 6.8 6.5 6.6
8.7 9.7 7.3 6.5 6.5 6.5 6.5 6.5 6.5 6.4 7.6 7.3 7.3 7.9 7.6 7.2 8.9 9.1 9.9 10.1 10.2 10.1 9.6 6.9 5.8 6.1 6.7 6.2 6.3 6.3 6.7 6.9 6.8 6.7 6.6 6.6 6.8 7.1 6.8 6.9 6.9 7.0 6.7 6.6 6.7 6.9 6.6 6.4 6.7
9.3 8.4 7.8 6.5 6.5 6.5 6.5 6.5 6.7 6.7 7.4 7.6 7.7 6.6 8.3 9.0 9.1 9.7 10.2 10.2 9.9 9.8 9.5 5.4 5.7 6.2 6.6 6.3 6.2 6.6 6.5 6.7 6.5 6.5 6.6 6.7 6.8 7.1 7.3 7.1 7.0 7.2 7.0 6.7 6.8 7.0 7.0 6.8 6.5
8.9 7.6 6.5 6.5 6.5 6.5 6.5 6.9 6.9 6.5 6.9 7.1 7.4 6.8 7.6 8.9 9.8 10.0 10.0 10.1 10.0 9.7 9.5 8.2 5.8 6.3 6.3 6.8 6.5 6.5 6.4 6.6 6.7 6.6 6.8 7.0 7.4 7.0 7.2 7.1 7.0 7.0 6.9 6.7 7.0 7.2 7.1 6.6 6.2
7.0 7.3 6.5 6.5 6.5 6.5 6.6 7.0 6.9 6.8 7.1 7.4 7.4 7.4 7.6 9.4 9.5 9.9 10.1 9.9 9.8 9.8 9.6 8.8 6.0 6.3 6.3 6.7 6.5 6.7 6.4 6.4 6.8 6.8 6.9 6.9 6.9 7.2 7.6 7.3 7.4 7.0 6.9 6.7 7.0 6.8 6.6 6.4 6.0
6.8 6.5 6.5 6.5 6.5 6.5 6.5 7.5 6.9 7.0 7.0 6.9 8.1 6.5 8.1 9.0 9.6 10.0 9.9 10.1 9.9 9.7 9.7 9.4 9.2 7.2 6.3 6.4 6.6 6.6 6.4 6.7 6.7 6.8 6.8 6.8 7.0 7.1 7.6 7.6 7.3 7.3 7.3 7.3 7.1 6.7 6.5 6.2 6.0
8.0 6.5 6.5 6.5 6.5 6.5 6.7 7.2 7.8 7.2 6.9 8.5 8.6 6.7 7.1 9.0 9.7 10.0 9.9 9.9 9.9 9.9 9.9 9.7 9.5 9.5 9.4 8.7 6.6 6.8 6.4 6.7 6.7 6.8 6.5 6.4 7.0 7.2 7.2 6.9 7.0 7.3 7.3 6.9 6.6 6.2 6.1 5.9 5.7
8.5 6.5 6.5 6.5 6.5 6.5 7.4 6.6 7.9 8.1 7.7 7.8 8.0 8.2 9.0 9.6 9.8 9.6 9.5 9.6 9.8 8.7 10.1 10.0 9.9 9.5 8.7 9.1 7.3 6.7 6.4 6.6 6.7 6.7 6.5 7.7 8.9 9.3 8.8 6.8 7.0 7.2 7.1 6.7 6.3 5.9 5.6 5.3 5.7
6.9 6.5 6.5 6.5 6.6 6.5 6.9 6.9 7.3 7.2 7.0 7.3 7.8 8.8 9.3 9.4 9.3 9.1 9.1 9.2 9.4 9.0 9.9 10.0 9.6 9.7 9.4 9.5 8.2 9.3 9.1 8.4 9.1 9.2 7.1 8.1 8.7 9.4 9.2 7.3 6.9 6.8 6.7 6.5 6.3 6.3 6.3 7.4 8.5
6.8 6.5 6.5 6.8 7.3 7.6 7.0 6.9 7.5 6.9 6.5 7.3 7.4 8.3 9.0 9.1 9.1 9.1 9.2 9.3 9.5 9.6 9.9 9.7 9.2 8.7 7.7 9.6 9.6 9.6 9.2 9.6 9.5 9.2 9.2 8.7 9.5 9.0 9.5 7.6 8.3 8.1 6.5 9.0 7.4 6.3 7.2 8.2 9.5
6.5 6.8 7.0 7.2 7.6 7.4 6.9 7.6 7.0 7.1 7.1 8.0 8.3 8.8 8.9 8.9 9.0 9.1 9.1 9.2 9.4 9.5 9.6 9.8 9.9 7.6 8.9 9.7 9.7 9.4 9.4 8.5 9.2 9.1 9.2 9.4 9.7 9.5 8.9 8.8 9.6 9.1 8.1 9.5 6.9 9.4 9.1 9.6 9.6
6.5 6.6 7.3 7.6 7.6 7.5 7.6 7.0 6.9 7.0 6.6 8.0 8.7 8.8 8.8 8.9 9.0 9.2 9.3 9.5 9.5 9.4 9.6 9.8 9.8 7.0 8.0 9.6 9.5 8.3 9.7 9.0 9.6 8.6 9.3 9.2 8.7 8.8 9.2 9.4 9.3 9.4 9.5 9.6 9.4 9.3 8.6 9.5 9.5
7.2 7.1 7.1 7.4 7.4 7.4 6.7 6.8 7.2 7.4 8.2 8.1 8.4 8.6 8.9 8.9 9.0 9.0 9.0 9.2 9.3 9.4 9.5 9.8 9.7 9.3 9.1 9.5 9.5 8.5 9.1 9.6 8.9 9.2 9.3 9.6 9.5 9.4 9.6 9.6 8.8 9.1 9.4 9.1 9.1 7.8 8.1 7.7 9.6
7.3 6.5 6.5 6.8 7.1 6.5 7.3 6.5 6.5 7.6 8.2 7.9 8.2 8.5 8.7 8.8 9.1 8.9 9.1 9.2 9.4 9.7 9.6 9.6 9.7 9.6 9.6 9.4 9.6 8.9 9.0 9.2 8.1 9.4 9.5 9.5 8.5 9.4 9.4 9.4 8.5 8.9 8.6 9.1 9.6 9.4 9.5 9.3 9.3
6.5 6.5 6.5 6.5 6.7 7.2 7.0 6.5 6.5 7.9 7.7 7.6 8.0 8.3 8.5 8.7 9.0 9.1 9.3 9.4 9.5 9.6 9.5 9.6 10.0 9.8 9.8 9.7 9.6 8.6 9.2 8.6 8.6 8.9 9.4 9.6 9.0 8.7 8.4 9.4 8.9 9.5 9.5 8.9 8.5 7.4 7.8 8.8 8.7
6.5 6.5 6.5 6.5 6.8 6.5 6.5 6.5 6.9 8.0 7.7 7.4 7.3 7.9 8.3 8.4 8.5 8.9 9.3 9.5 9.5 9.5 9.5 9.5 9.6 9.6 9.7 9.6 9.6 9.1 9.2 8.8 8.7 8.8 9.0 9.5 9.6 9.2 9.4 9.1 9.4 8.7 8.8 9.4 7.9 8.8 8.0 6.8 9.2
6.5 6.5 6.5 6.5 6.5 6.5 6.5 6.5 6.5 7.6 7.6 7.4 7.4 7.1 7.8 8.0 8.3 8.8 9.3 9.2 9.5 9.6 9.6 9.6 9.7 9.5 9.6 9.7 9.6 9.4 9.5 8.3 8.7 8.5 7.8 8.8 8.5 8.9 9.2 9.6 9.1 8.2 8.7 5.8 8.6 8.0 6.4 7.2 8.0
6.5 6.5 6.5 6.5 6.5 6.5 6.5 6.5 6.5 7.3 7.5 7.2 7.2 7.0 7.8 7.7 8.5 8.9 9.2 9.1 8.8 9.5 9.5 9.5 9.4 9.4 9.6 9.6 9.5 9.5 7.4 7.4 7.6 8.3 9.6 8.4 8.9 8.3 8.5 9.6 8.5 8.2 9.3 8.7 9.6 9.2 8.5 9.3 9.3
6.5 6.5 6.5 6.5 6.5 6.5 6.5 6.5 6.5 6.7 7.1 7.5 7.6 7.3 7.6 7.9 8.3 8.6 8.8 9.2 8.5 9.3 9.3 9.3 9.3 9.3 9.4 9.6 9.4 9.6 7.2 7.7 6.1 7.7 9.6 9.6 9.6 9.0 9.5 8.9 9.4 8.4 9.6 9.5 9.5 8.6 8.0 8.4 9.2
6.5 6.5 6.5 6.5 6.5 6.5 6.5 6.5 6.5 6.6 7.2 7.2 7.3 8.0 7.7 7.8 7.9 8.3 8.1 8.6 8.5 9.1 9.3 9.3 9.3 9.3 9.4 9.5 9.6 9.5 9.1 9.0 8.9 8.5 9.7 9.6 8.5 9.5 9.6 9.0 8.7 8.7 8.8 9.4 9.4 9.1 8.6 7.5 9.4
6.5 6.5 6.5 6.5 6.5 6.5 6.5 6.5 6.5 6.5 6.5 6.7 7.1 7.6 7.7 7.8 8.2 8.3 8.3 8.5 8.8 9.1 9.5 9.3 9.4 9.3 9.5 9.5 9.3 9.0 9.1 8.4 9.2 8.7 7.0 9.6 9.5 9.6 9.5 9.5 9.5 8.9 8.8 7.8 9.2 9.6 8.8 8.1 8.9
6.5 6.5 6.5 6.5 6.5 6.5 6.5 6.5 6.5 6.5 6.5 6.5 7.0 7.3 7.8 8.1 8.2 8.1 8.4 8.7 7.8 9.3 9.4 9.4 9.4 9.3 9.4 9.2 8.3 9.3 7.3 7.3 8.9 5.9 7.7 9.0 9.4 9.5 9.6 9.4 9.4 9.1 8.4 9.3 8.6 9.0 8.3 9.4 8.9
6.5 6.5 6.5 6.5 6.5 6.5 6.5 6.5 6.5 6.5 6.5 6.5 7.1 7.2 7.8 7.6 8.2 7.7 8.2 8.1 8.3 9.2 9.4 9.4 9.2 9.0 9.3 9.3 8.1 9.1 8.8 7.6 7.2 5.1 9.2 9.5 9.7 9.7 9.6 9.5 9.1 8.6 8.7 8.9 9.6 9.5 8.7 8.3 8.7
6.5 6.5 6.5 6.5 6.5 6.5 6.5 6.5 6.5 6.5 6.5 6.6 6.7 7.3 8.0 6.7 8.2 8.0 6.7 8.7 7.7 8.5 9.1 9.2 9.1 8.9 8.9 9.2 9.2 9.2 9.2 9.0 8.3 8.6 8.9 8.1 7.8 9.5 8.8 9.1 9.3 8.4 8.3 9.5 9.4 9.2 9.3 8.6 8.9
6.5 6.5 6.5 6.5 6.5 6.5 6.5 6.5 6.5 6.5 7.2 7.4 7.5 7.9 8.1 7.9 8.5 8.7 8.6 8.3 7.5 8.4 9.1 9.1 9.0 9.0 9.1 9.0 9.1 9.1 9.1 9.5 9.4 9.0 8.8 8.9 6.6 5.8 7.7 8.1 8.9 9.4 8.9 9.5 9.5 9.5 9.0 9.5 9.4
6.5 6.5 6.5 6.5 6.5 6.5 6.5 6.5 6.5 6.5 6.5 7.2 7.4 7.5 7.8 7.7 6.8 8.2 8.5 8.8 7.3 7.9 9.0 9.1 8.9 9.1 9.2 9.3 9.2 9.1 9.1 8.4 9.4 9.4 9.0 9.5 8.2 4.1 9.7 9.5 9.6 9.5 9.5 9.5 9.5 9.5 8.6 8.4 8.9
6.5 6.5 6.5 6.5 6.5 6.5 6.5 6.5 6.5 6.5 6.5 6.5 6.8 7.5 7.9 6.4 5.3 2.2 4.4 7.0 7.9 8.3 9.1 9.3 9.2 9.1 9.2 9.4 9.4 9.4 9.3 9.1 8.3 9.4 9.3 9.4 7.8 9.5 5.8 9.6 9.4 9.6 9.6 9.5 8.9 8.9 9.0 9.4 9.5
6.5 6.5 6.5 6.5 6.5 6.5 6.5 6.5 6.5 6.5 6.5 6.5 7.0 7.7 8.1 8.2 8.0 6.9 3.3 2.1 2.6 3.0 7.9 8.7 9.3 9.2 9.3 9.4 9.4 9.4 9.4 9.5 9.4 9.4 9.5 9.5 9.5 9.5 9.5 9.3 9.5 9.5 9.6 9.5 9.2 8.2 9.2 9.2 8.9
6.5 6.5 6.5 6.5 6.5 6.5 6.5 6.5 6.5 6.5 7.0 7.4 7.2 7.6 8.3 8.0 7.6 8.0 4.7 2.0 0.3 2.1 2.2 3.7 8.5 9.4 9.4 9.3 9.4 9.4 9.4 9.5 9.4 9.4 9.5 9.6 9.4 9.6 9.5 9.5 9.4 9.5 9.4 9.5 9.2 9.2 9.4 9.3 9.1
Wind_Speed
11 13 9 5 5 6 3 4 3 11 9 6 13 10 14 21 10 10 23 21 23 19 22 19 15 13 14 14 11 10 10 11 10 12 10 12 12 11 11 12 12 13 14 13 14 15 15 16 15
14 5 5 5 7 3 4 7 9 6 6 14 8 12 13 15 12 24 20 22 21 22 22 20 16 13 13 14 11 9 12 13 12 12 12 12 13 13 14 12 12 12 13 14 14 14 15 16 15
16 5 4 3 8 3 7 9 7 7 12 7 10 14 11 8 23 19 24 22 21 21 25 22 17 14 11 14 11 12 12 13 13 12 13 13 13 13 13 13 12 13 13 13 13 14 15 16 16
6 3 5 5 7 6 9 13 13 4 7 3 12 12 9 11 19 24 23 21 19 20 24 20 17 14 12 13 11 12 13 12 12 13 12 12 12 13 13 14 12 13 13 13 12 14 15 16 15
4 4 5 4 7 7 14 15 10 11 3 6 5 10 14 14 18 24 20 19 18 19 23 20 16 14 11 11 11 12 13 12 13 13 12 12 12 12 12 13 15 14 14 12 13 13 14 16 15
2 4 3 3 14 12 13 10 7 6 6 7 18 17 9 12 22 21 18 18 17 18 22 19 15 13 12 12 13 13 13 13 13 13 13 12 11 12 12 13 16 14 14 14 16 18 16 15 14
8 5 5 4 14 10 15 13 11 12 9 6 14 9 13 19 21 20 17 18 14 22 20 19 18 14 12 11 12 13 13 13 13 13 12 13 11 13 13 15 15 15 17 18 17 16 16 15 13
7 3 3 7 11 12 10 14 13 11 10 10 16 9 21 23 22 19 17 16 15 13 13 18 18 16 16 14 11 13 13 12 12 11 13 16 16 15 15 17 15 16 17 18 17 17 16 15 11
10 3 5 8 11 14 17 10 12 5 10 4 6 13 25 24 22 19 16 16 13 7 13 13 15 17 12 15 13 11 12 15 14 11 11 14 16 17 14 17 14 15 16 15 16 16 17 17 12
3 2 10 9 16 12 11 9 10 8 11 12 9 25 25 23 21 19 17 15 15 14 13 9 13 14 12 15 15 13 14 15 10 12 8 11 17 16 17 13 12 12 14 13 14 16 17 18 15
2 1 4 12 14 18 12 6 5 5 8 12 17 25 25 24 20 19 18 16 15 13 11 17 8 11 11 11 12 11 14 11 11 5 4 11 14 17 15 14 13 13 12 11 12 14 13 7 5
8 10 6 10 11 16 17 13 9 4 4 2 14 24 24 24 21 19 18 16 16 12 10 12 12 11 6 11 8 5 9 14 9 12 7 7 9 6 4 11 9 4 12 9 8 12 10 6 9
6 7 5 5 8 7 6 10 12 8 9 8 16 24 24 22 20 18 16 15 15 12 10 13 11 9 2 6 10 7 9 13 12 13 1 2 11 4 6 3 7 8 8 5 7 10 4 8 8
9 6 4 5 6 6 8 11 10 15 15 12 20 25 23 22 21 17 15 13 14 13 10 13 13 11 4 7 7 1 4 13 11 10 8 2 8 5 9 6 5 5 9 8 10 1 6 2 10
5 11 10 9 8 8 8 10 7 15 15 17 21 23 22 21 20 17 15 14 13 13 11 13 12 14 10 10 8 5 7 9 15 9 8 6 8 2 1 4 5 6 9 5 6 3 5 9 8
13 15 14 11 10 11 12 8 17 16 15 17 20 21 20 19 20 18 15 14 16 13 13 12 11 13 10 11 9 4 6 8 6 8 9 6 5 5 6 7 3 7 10 9 4 1 2 4 6
14 14 16 13 13 14 11 15 18 16 14 16 12 19 18 18 17 17 15 14 16 13 13 12 9 12 11 11 9 8 6 6 2 2 9 6 6 5 5 3 7 4 2 1 4 2 3 3 6
18 20 19 14 11 12 13 3 17 18 17 18 16 9 16 17 18 17 17 14 16 14 13 12 10 11 10 9 6 6 6 7 5 4 11 6 9 6 5 5 5 9 6 9 4 3 7 5 5
16 18 15 11 16 15 14 13 16 19 18 15 12 12 16 15 17 16 15 12 13 15 14 13 12 11 9 9 8 6 4 3 3 7 7 4 10 7 4 8 5 10 6 6 4 4 2 1 2
18 19 15 13 6 11 7 8 16 15 20 19 19 15 17 16 19 18 17 16 10 16 15 14 13 13 10 8 6 5 4 4 4 6 7 4 5 7 8 8 7 4 7 4 2 2 3 3 3
16 15 15 15 10 15 12 11 14 15 16 20 15 18 16 18 18 18 16 15 11 15 15 14 13 13 11 9 6 4 3 2 5 3 6 8 6 7 6 7 4 4 5 8 4 4 3 3 2
18 16 12 10 16 12 15 7 19 20 16 18 16 19 18 18 17 17 16 16 15 16 15 15 14 13 13 10 9 7 7 5 6 6 2 8 8 6 8 7 5 5 1 5 4 3 4 2 4
12 13 8 11 15 13 15 9 4 21 20 16 16 14 19 22 20 16 18 18 9 18 16 16 15 13 12 11 9 8 7 5 7 7 6 5 6 7 10 9 7 6 8 4 5 4 3 2 4
7 9 11 12 14 15 10 17 11 8 8 15 16 13 14 13 23 18 15 16 13 16 17 16 16 13 12 13 11 9 7 7 3 8 5 6 7 8 7 10 7 8 9 6 4 4 3 5 5
13 14 10 11 12 11 18 16 12 11 8 6 15 16 18 12 14 18 12 23 16 16 19 17 16 15 15 14 13 12 10 7 9 1 6 5 3 7 10 7 7 8 7 4 7 5 4 3 5
17 20 12 12 13 14 16 11 10 11 11 8 2 14 19 20 21 21 21 19 16 16 19 19 18 15 15 15 13 11 11 8 8 8 7 4 6 8 14 10 10 9 11 9 8 5 7 6 5
18 19 24 14 14 14 13 15 12 13 12 12 11 10 15 17 17 22 19 19 16 13 19 18 17 16 15 16 13 12 11 12 9 7 8 7 5 4 9 12 10 10 9 10 8 8 8 3 6
12 14 20 11 17 15 16 19 11 12 10 11 12 14 18 18 14 15 9 6 17 16 17 19 17 16 15 14 14 13 13 13 11 8 8 7 4 6 4 10 8 8 8 7 7 8 8 6 6
12 12 16 13 16 13 10 9 11 12 9 11 11 12 16 16 15 16 15 11 15 16 10 16 18 17 15 14 13 13 13 14 12 11 11 10 9 8 5 4 7 7 9 9 8 9 5 8 8
14 15 17 12 19 15 7 8 12 13 13 14 11 11 14 15 15 14 16 17 15 13 14 11 13 18 16 14 13 13 12 13 14 13 13 11 11 10 9 7 9 10 10 9 10 10 8 9 10
Wind_Direction
194 204 237 255 251 218 76 48 339 80 67 108 86 110 66 32 32 94 138 128 134 135 130 138 126 127 121 111 120 129 127 114 105 98 95 94 90 89 93 90 88 88 94 88 88 91 89 90 98
200 162 236 260 247 229 107 90 62 325 116 93 102 114 89 61 96 128 125 133 141 130 143 133 127 127 125 120 121 107 99 108 109 101 93 97 88 87 91 92 94 95 91 92 96 94 95 97 98
251 193 285 252 275 99 135 119 118 272 124 123 114 55 34 95 123 131 123 146 137 146 128 122 128 129 125 122 118 110 98 101 98 99 94 92 90 86 90 90 95 99 96 96 97 94 101 101 100
175 236 256 263 279 88 121 140 146 197 33 252 130 93 90 122 135 123 141 149 135 121 117 130 133 132 126 124 119 109 101 97 95 97 96 93 93 94 96 95 96 103 99 96 98 104 100 102 101
235 252 260 273 68 90 116 135 147 143 127 153 95 89 115 123 118 138 151 141 138 122 122 135 136 130 124 123 116 110 100 101 101 92 96 98 97 95 98 98 100 96 92 91 92 112 116 100 99
240 227 301 350 92 92 115 125 152 162 178 115 105 110 107 138 138 146 155 139 126 125 129 133 133 130 122 118 118 110 104 104 102 101 102 97 96 106 107 105 101 97 90 93 94 99 105 102 101
257 279 285 57 117 121 136 153 171 180 152 130 136 117 134 155 146 151 153 134 140 125 122 137 135 128 123 117 116 114 108 109 108 106 107 106 106 104 109 104 101 96 96 101 102 103 105 107 108
270 297 321 39 92 105 144 156 178 193 166 127 148 144 147 147 154 156 152 139 135 131 130 144 134 149 150 132 116 112 112 118 115 123 139 139 125 119 116 114 100 100 101 101 106 108 111 112 121
261 306 53 45 106 124 158 159 166 170 167 135 121 149 141 148 153 156 148 138 147 80 148 125 152 111 110 118 124 124 138 139 141 147 176 169 130 120 109 88 105 108 105 104 116 125 135 134 146
216 281 64 59 109 146 124 149 149 178 179 128 120 128 141 156 157 155 156 149 142 188 130 131 126 136 144 130 166 142 152 163 157 112 210 199 76 97 102 111 117 120 125 130 141 153 160 171 147
270 221 32 86 104 137 158 153 128 188 165 145 138 141 152 158 162 158 158 159 155 158 152 127 97 117 143 128 160 161 158 124 107 148 77 117 138 144 135 139 145 143 175 148 169 172 201 239 137
200 208 144 99 122 130 158 172 148 182 68 32 143 150 159 162 165 162 163 163 145 147 139 124 138 86 152 136 159 114 128 105 158 107 135 143 125 113 70 136 131 177 166 108 289 93 105 92 51
190 206 180 160 148 109 117 168 136 156 163 225 149 157 165 165 167 166 163 155 143 143 165 128 130 87 298 195 112 90 139 145 112 176 160 94 94 99 80 65 84 127 130 109 103 120 129 124 105
210 249 185 198 132 123 163 148 139 164 166 160 160 164 168 167 171 164 163 158 144 152 165 129 132 146 175 95 94 107 251 108 167 123 106 98 112 96 137 167 156 95 85 61 83 298 144 191 105
192 213 215 208 174 137 174 140 152 151 137 147 159 165 169 171 169 171 163 162 155 157 183 140 153 149 174 136 158 182 165 195 109 133 157 110 70 112 115 102 156 116 91 113 142 98 156 125 129
223 226 200 159 172 140 189 139 136 142 142 153 161 169 169 175 174 171 170 162 158 170 171 157 172 152 165 151 184 169 109 50 128 161 149 126 113 146 246 176 94 123 185 172 175 206 299 128 130
211 207 233 144 200 147 186 152 142 147 164 153 166 172 172 182 182 173 168 170 154 169 164 169 171 160 167 149 191 159 176 181 152 331 132 133 131 144 259 167 98 221 353 184 106 171 206 162 183
194 233 203 156 178 199 140 174 148 151 154 173 172 190 179 188 186 174 173 175 158 160 168 172 178 156 172 155 191 172 180 132 139 136 106 154 138 147 221 118 148 250 182 61 75 305 91 257 106
212 211 238 142 156 214 160 160 148 160 166 163 173 187 201 189 189 172 176 169 162 161 170 174 182 157 179 169 189 172 187 145 196 141 140 158 142 146 200 142 198 255 88 73 128 155 204 220 321
249 203 222 128 183 246 126 157 148 181 169 177 177 203 204 194 186 183 182 185 172 164 173 174 181 163 195 183 214 200 150 188 78 158 140 143 149 156 188 179 189 235 115 130 220 73 261 174 62
232 217 198 152 181 237 156 191 146 185 186 156 170 190 212 207 182 184 177 180 191 163 177 175 181 169 194 204 210 210 290 197 161 141 167 159 128 181 135 229 80 194 281 156 191 209 55 316 96
211 236 226 177 183 202 212 229 182 166 176 144 169 198 198 188 189 189 182 187 196 160 176 171 180 178 185 208 193 172 209 189 191 201 116 138 177 163 183 183 150 227 312 118 167 205 316 266 159
243 191 250 179 215 217 179 227 291 157 166 168 193 203 182 184 191 188 181 193 178 165 175 168 176 181 181 195 242 181 243 151 211 102 210 108 155 186 181 189 188 214 256 115 252 98 309 269 296
238 150 204 219 230 234 207 227 187 154 96 165 178 205 198 205 180 184 184 187 179 179 175 168 173 183 190 191 206 229 226 267 303 121 174 184 171 179 180 191 177 243 274 142 204 215 240 312 343
199 192 190 206 214 224 195 212 114 96 86 86 171 202 207 164 192 180 215 184 186 190 180 172 175 185 190 196 195 210 223 243 282 107 208 196 176 198 154 183 178 195 235 207 229 192 266 239 281
218 213 210 194 208 204 189 180 121 111 84 55 255 200 197 185 192 185 185 204 182 185 186 183 174 189 196 200 204 203 207 218 226 188 267 197 219 245 138 176 184 214 187 213 198 215 239 196 229
199 228 242 279 238 209 146 91 115 116 99 72 14 13 182 202 177 180 189 183 175 192 188 188 172 189 199 203 200 206 205 228 222 229 203 244 205 28 163 168 204 206 193 205 189 245 196 195 226
266 227 234 237 260 221 168 162 143 141 93 75 43 22 31 40 25 28 21 180 171 186 197 189 188 187 197 203 201 205 209 209 223 218 240 254 299 223 1 174 188 206 193 211 204 198 204 220 220
211 247 224 240 247 219 184 109 105 118 96 79 50 29 36 34 27 42 25 30 46 13 198 187 193 194 196 199 201 208 206 207 208 212 212 223 240 269 227 220 200 206 208 203 212 269 180 198 224
297 232 219 237 223 264 287 101 87 95 97 88 65 44 43 49 40 42 49 31 33 28 12 351 211 198 199 204 201 207 214 211 206 211 211 210 218 226 244 223 235 216 232 214 212 224 240 203 219